COSMOS 1275 DEB, 17629

Orbit data source: Space-Track

COSMOS 1275 DEB, 17629 is space debris in LEO originally from a launch on Thu, 04 Jun 1981 UTC launched from the Plesetsk Missile And Space Complex (PKMTR). Debris objects in space refer to the collection of defunct objects orbiting the Earth. Examples of debris include non-operational satellites, rocket bodies, and fragments generated from explosions, collisions, or faulty payload assembly.

Loading next visibility...
Identifier
17629, 1981-053KY
Orbit
LEO
Country
Flag of CISCIS
Related business
Manufacturer
Unknown
Mission
Spacecraft
Bus & Motor
Unknown
Mass
Unknown
Launch date (UTC)
1981-06-04 (45 years ago)
Launch vehicle
Unknown
Launch site
Plesetsk Missile And Space Complex (PKMTR)
Object type
Payload
Rocket body
Debris
Shape & HBR
Unknown shape, 0.1 m
Radar Cross Section
Small (<0.1 m²)

Expand to show TLE details & history
Last TLE update: 5 hours ago

TLE from 5 hours ago
0 COSMOS 1275 DEB
1 17629U 81053KY  26145.13602184  .00000924  00000-0  97369-3 0  9997
2 17629  82.9880  26.1569 0157091 253.7724 260.7956 13.68617587 34727
Epoch: 2026-05-25T03:15Z
TLE epoch observation values (Epoch: 2026-05-25T03:15:52.286Z)
Latitude
27.01981°
Longitude
-89.11669°
Altitude
1,028.149 km
Speed
7.33 km/s
True Right ascension
13h 30m 19s
True Declination
26° 53' 09"
Sunlit
Object was in daylight at epoch
Visualization orbit readout
Latitude
Unknown
Longitude
Unknown
Altitude
Unknown
Speed
Unknown
Apparent Right ascension
Unknown
Apparent Declination
Unknown
Sunlit
N/A
Visualization observer readout
Local Sidereal Time
17:46:48
Azimuth
Unknown
Elevation
Unknown
Doppler factor
Unknown
Orbital elements
Apogee altitude
1,117.624 km
Perigee altitude
885.763 km
Semi-major axis
7,379.83 km
Eccentricity
0.01571
Inclination
82.988°
RAAN
26.1569°
Arg. of periapsis
253.7724°
True anomaly
259.02449°
Mean anomaly
260.7956°
Eccentric anomaly
259.90946°
Mean motion
3.42353 °/min
Orbital period
105.15 mins
BSTAR
0.00097369
Loading maneuver chart data...
Computing Atmospheric mass density...
Loading historical data...
Loading historical data...
Loading historical data...
Loading historical data...
Loading historical data...
Loading historical data...
Loading historical data...

Documentation

Showing up to 5 results
|